Stations météo

réclame
Mon MeteoGroup
K14A, Pays-Bas (6204): Température de l'air & dewpoint: 14.11.2018 13:00:00 - 20.11.2018 13:00:00 (CET)K14A, Pays-Bas (6204): Vitesse du vent & gusts: 14.11.2018 13:00:00 - 20.11.2018 13:00:00 (CET)K14A, Pays-Bas (6204): Direction du vent: 14.11.2018 13:00:00 - 20.11.2018 13:00:00 (CET)K14A, Pays-Bas (6204): reduced air pressure: 14.11.2018 13:00:00 - 20.11.2018 13:00:00 (CET)K14A, Pays-Bas (6204): visibility: 14.11.2018 13:00:00 - 20.11.2018 13:00:00 (CET)
Date & Time tt [°C] td [°C] ff [km/h] ff [knt] fx [km/h] fx [knt] dd ppp [hPa] vv [km]
20.11.2018 13:00:00 4,9 0,3 65 35 68 37 E 1012,9 10
20.11.2018 12:00:00 5,5 0,3 68 37 68 37 E 1013,2 10
20.11.2018 11:00:00 5,8 1,3 63 34 72 39 ENE 1013,6 10
20.11.2018 10:00:00 6,7 1,7 65 35 72 39 ENE 1014,2 10
20.11.2018 09:00:00 6,4 0,9 67 36 72 39 E 1014,5 10
20.11.2018 08:00:00 6,5 1,5 63 34 65 35 E 1014,9 10
20.11.2018 07:00:00 6,6 1,1 67 36 76 41 E 1015,6 10
20.11.2018 06:00:00 6,6 1,5 70 38 76 41 E 1016,3 10
20.11.2018 05:00:00 6,2 0,9 74 40 76 41 ENE 1016,7 10
20.11.2018 04:00:00 6,4 1,7 68 37 68 37 ENE 1017,3 10
20.11.2018 03:00:00 6,8 1,4 72 39 76 41 E 1018,1 10
20.11.2018 02:00:00 6,9 1,8 67 36 68 37 E 1018,8 10
20.11.2018 01:00:00 7,5 0,6 61 33 68 37 E 1019,9 10
20.11.2018 00:00:00 7,9 0,2 61 33 68 37 E 1020,2 10
19.11.2018 23:00:00 7,7 0,2 61 33 61 33 ENE 1020,7 10
19.11.2018 22:00:00 8,1 1,7 59 32 65 35 E 1021,4 10
19.11.2018 21:00:00 8,3 2,6 59 32 65 35 E 1021,7 10
19.11.2018 20:00:00 8,6 2,0 63 34 65 35 E 1022,0 10
19.11.2018 19:00:00 8,7 2,8 65 35 68 37 E 1022,2 10
19.11.2018 18:00:00 8,7 0,7 63 34 68 37 E 1022,2 10
19.11.2018 17:00:00 8,6 2,9 55 30 68 37 ENE 1022,4 10
19.11.2018 16:00:00 8,5 3,7 55 30 61 33 ENE 1022,8 10
19.11.2018 15:00:00 8,2 4,3 54 29 65 35 ENE 1023,4 8
19.11.2018 14:00:00 8,4 4,0 52 28 54 29 E 1024,3 10
19.11.2018 13:00:00 7,9 4,1 52 28 61 33 ENE 1025,3 10
19.11.2018 12:00:00 8,5 4,0 46 25 50 27 E 1025,8 10
19.11.2018 11:00:00 8,5 4,0 48 26 50 27 E 1026,3 10
19.11.2018 10:00:00 8,0 4,2 46 25 54 29 E 1026,8 10
19.11.2018 09:00:00 7,9 4,6 46 25 47 25 E 1026,9 10
19.11.2018 08:00:00 8,0 4,6 48 26 50 27 E 1027,1 10
19.11.2018 07:00:00 8,4 4,2 48 26 54 29 E 1027,4 10
19.11.2018 06:00:00 8,3 4,7 48 26 50 27 E 1027,8 10
19.11.2018 05:00:00 8,8 4,0 39 21 43 23 E 1027,9 10
19.11.2018 04:00:00 9,0 3,1 42 23 54 29 E 1028,4 10
19.11.2018 03:00:00 8,9 2,5 48 26 50 27 E 1029,2 10
19.11.2018 02:00:00 8,6 1,8 52 28 54 29 E 1029,6 10
19.11.2018 01:00:00 9,0 3,2 52 28 58 31 E 1030,0 10
19.11.2018 00:00:00 8,6 2,9 55 30 61 33 E 1030,5 10
18.11.2018 23:00:00 8,5 4,1 46 25 47 25 E 1030,5 10
18.11.2018 22:00:00 7,8 5,5 48 26 54 29 E 1030,3 10
18.11.2018 21:00:00 8,4 5,4 48 26 50 27 E 1030,3 10
18.11.2018 20:00:00 9,7 4,5 44 24 43 23 NE 1030,2 10
18.11.2018 19:00:00 10,1 4,9 37 20 40 21 NE 1030,2 10
18.11.2018 18:00:00 10,2 2,4 34 18 40 21 ENE 1030,6 10
18.11.2018 17:00:00 10,1 0,5 39 21 40 21 ENE 1031,2 10
18.11.2018 16:00:00 9,9 -2,2 41 22 43 23 ENE 1031,3 10
18.11.2018 15:00:00 9,9 -2,6 44 24 43 23 E 1031,7 10
18.11.2018 14:00:00 9,9 -1,9 42 23 43 23 E 1031,7 10
18.11.2018 13:00:00 9,8 -2,6 42 23 47 25 E 1032,4 10
18.11.2018 12:00:00 9,8 -1,4 44 24 43 23 E 1032,8 10
18.11.2018 11:00:00 9,7 -0,7 41 22 40 21 E 1032,9 10
18.11.2018 10:00:00 8,9 3,7 35 19 40 21 E 1032,9 10
18.11.2018 09:00:00 8,1 3,5 37 20 40 21 E 1033,0 10
18.11.2018 08:00:00 7,8 3,9 37 20 40 21 E 1032,8 10
18.11.2018 07:00:00 8,7 3,6 37 20 36 19 E 1032,4 10
18.11.2018 06:00:00 8,7 4,0 37 20 40 21 E 1032,6 10
18.11.2018 05:00:00 8,5 4,3 37 20 40 21 E 1032,8 10
18.11.2018 04:00:00 8,8 4,3 39 21 40 21 E 1032,8 10
18.11.2018 03:00:00 8,8 4,0 39 21 40 21 E 1032,8 10
18.11.2018 02:00:00 8,9 3,9 39 21 40 21 E 1032,6 10
18.11.2018 01:00:00 8,7 4,6 39 21 40 21 E 1032,9 10
18.11.2018 00:00:00 8,6 4,1 42 23 43 23 E 1032,8 10
17.11.2018 23:00:00 8,4 3,8 44 24 43 23 E 1032,7 10
17.11.2018 22:00:00 8,7 4,5 46 25 47 25 E 1032,9 10
17.11.2018 21:00:00 9,3 4,1 50 27 47 25 E 1032,6 10
17.11.2018 20:00:00 10,2 4,3 44 24 47 25 E 1032,9 10
17.11.2018 19:00:00 10,1 4,6 39 21 43 23 E 1032,8 10
17.11.2018 18:00:00 10,0 5,8 41 22 40 21 E 1032,7 10
17.11.2018 17:00:00 9,6 5,8 37 20 36 19 E 1032,4 10
17.11.2018 16:00:00 9,1 5,6 34 18 32 18 E 1032,6 10
17.11.2018 15:00:00 8,6 5,1 34 18 32 18 E 1032,6 10
17.11.2018 14:00:00 8,3 5,1 31 17 36 19 ESE 1032,8 10
17.11.2018 13:00:00 8,4 5,0 37 20 40 21 ESE 1032,8 10
17.11.2018 12:00:00 8,6 5,2 39 21 40 21 ESE 1032,6 10
17.11.2018 11:00:00 8,6 5,8 35 19 36 19 ESE 1032,6 9
17.11.2018 10:00:00 8,4 5,8 35 19 36 19 ESE 1032,2 9
17.11.2018 09:00:00 8,9 6,0 37 20 36 19 E 1031,9 10
17.11.2018 08:00:00 9,2 6,0 34 18 36 19 ESE 1031,6 10
17.11.2018 07:00:00 9,4 5,9 34 18 32 18 ESE 1031,0 10
17.11.2018 06:00:00 9,7 6,0 35 19 32 18 ESE 1031,0 10
17.11.2018 05:00:00 10,1 5,8 29 16 32 18 ESE 1031,1 10
17.11.2018 04:00:00 10,3 5,9 31 17 32 18 SE 1031,0 10
17.11.2018 03:00:00 10,3 6,6 29 16 29 16 ESE 1031,1 10
17.11.2018 02:00:00 10,6 7,3 28 15 29 16 ESE 1030,9 10
17.11.2018 01:00:00 10,8 7,3 24 13 29 16 ESE 1030,6 10
17.11.2018 00:00:00 10,5 7,0 29 16 32 18 ESE 1030,2 10
16.11.2018 23:00:00 10,0 7,3 28 15 29 16 ESE 1030,0 10
16.11.2018 22:00:00 9,3 7,0 28 15 29 16 ESE 1030,0 10
16.11.2018 21:00:00 9,0 6,5 28 15 29 16 ESE 1029,9 9
16.11.2018 20:00:00 8,3 5,9 28 15 36 19 SE 1029,9 7
16.11.2018 19:00:00 7,1 5,1 26 14 29 16 E 1029,9 6
16.11.2018 18:00:00 6,7 5,4 24 13 32 18 E 1029,4 5
16.11.2018 17:00:00 6,8 5,3 22 12 29 16 E 1028,9 8
16.11.2018 16:00:00 7,0 5,4 18 10 25 14 ESE 1028,6 8
16.11.2018 15:00:00 7,5 6,1 18 10 25 14 ESE 1028,4 10
16.11.2018 14:00:00 7,9 5,9 21 11 25 14 ESE 1028,8 9
16.11.2018 13:00:00 8,2 6,0 24 13 25 14 ESE 1028,8 9
16.11.2018 12:00:00 9,1 6,7 16 9 18 10 E 1028,8 10
16.11.2018 11:00:00 9,8 7,0 9 5 14 8 ESE 1028,9 10
16.11.2018 10:00:00 10,0 7,4 13 7 14 8 SE 1028,3 10
16.11.2018 09:00:00 10,5 8,4 8 4 14 8 SE 1028,3 10
16.11.2018 08:00:00 10,7 8,8 9 5 14 8 S 1027,6 10
16.11.2018 07:00:00 11,2 9,5 11 6 14 8 SSE 1027,2 10
16.11.2018 06:00:00 11,5 9,7 18 10 22 12 S 1026,9 10
16.11.2018 05:00:00 11,4 9,7 16 9 22 12 SSE 1026,2 10
16.11.2018 04:00:00 11,5 9,7 18 10 18 10 SSE 1025,9 10
16.11.2018 03:00:00 11,6 9,9 21 11 22 12 SSE 1025,8 10
16.11.2018 02:00:00 11,9 10,2 21 11 22 12 SSE 1025,4 8
16.11.2018 01:00:00 12,5 10,2 22 12 25 14 SSE 1025,2 8
16.11.2018 00:00:00 12,4 10,2 26 14 29 16 SSE 1025,1 8
15.11.2018 23:00:00 12,4 10,0 29 16 29 16 SSE 1024,8 9
15.11.2018 22:00:00 12,9 9,7 26 14 29 16 SSE 1024,7 10
15.11.2018 21:00:00 13,0 10,0 26 14 25 14 S 1024,4 10
15.11.2018 20:00:00 13,0 9,9 28 15 25 14 SSE 1024,2 10
15.11.2018 19:00:00 12,8 9,7 26 14 25 14 SSE 1024,1 10
15.11.2018 18:00:00 12,5 10,1 24 13 25 14 SE 1023,8 10
15.11.2018 17:00:00 12,2 10,2 24 13 25 14 SSE 1023,6 10
15.11.2018 16:00:00 12,4 10,5 21 11 22 12 SSE 1023,3 10
15.11.2018 15:00:00 12,3 10,4 21 11 22 12 SSE 1023,4 10
15.11.2018 14:00:00 12,3 10,3 26 14 29 16 S 1023,5 10
15.11.2018 13:00:00 12,0 10,2 29 16 32 18 SSE 1023,3 10
15.11.2018 12:00:00 12,1 10,2 29 16 32 18 SSE 1023,4 10
15.11.2018 11:00:00 11,9 10,1 28 15 29 16 SSE 1023,8 10
15.11.2018 10:00:00 12,0 10,1 26 14 25 14 S 1023,9 10
15.11.2018 09:00:00 12,1 10,2 24 13 25 14 SSE 1023,7 10
15.11.2018 08:00:00 12,2 10,4 24 13 25 14 S 1023,6 10
15.11.2018 07:00:00 12,5 10,2 22 12 25 14 S 1023,5 10
15.11.2018 06:00:00 12,6 10,2 26 14 29 16 S 1023,3 10
15.11.2018 05:00:00 12,6 10,1 28 15 29 16 S 1023,0 10
15.11.2018 04:00:00 12,7 9,9 28 15 29 16 S 1022,9 10
15.11.2018 03:00:00 12,8 9,6 26 14 29 16 S 1023,1 10
15.11.2018 02:00:00 12,7 9,7 29 16 32 18 S 1023,2 10
15.11.2018 01:00:00 12,7 9,6 29 16 32 18 S 1023,3 10
15.11.2018 00:00:00 12,7 9,6 34 18 40 21 S 1023,6 10
14.11.2018 23:00:00 12,8 9,8 37 20 40 21 SSW 1023,8 10
14.11.2018 22:00:00 12,7 9,5 39 21 43 23 S 1023,6 10
14.11.2018 21:00:00 12,8 9,3 39 21 43 23 S 1023,8 10
14.11.2018 20:00:00 12,6 9,2 41 22 43 23 S 1023,9 10
14.11.2018 19:00:00 12,6 9,3 42 23 43 23 S 1023,9 10
14.11.2018 18:00:00 12,7 9,1 44 24 50 27 S 1023,4 10
14.11.2018 17:00:00 12,9 9,1 48 26 50 27 S 1023,4 10
14.11.2018 16:00:00 13,0 9,8 48 26 50 27 S 1023,6 10
14.11.2018 15:00:00 13,1 10,1 42 23 47 25 S 1023,5 10
14.11.2018 14:00:00 13,0 9,8 46 25 47 25 S 1023,5 10
14.11.2018 13:00:00 12,9 10,4 48 26 50 27 S 1023,8 10

tt = Température de l'air
td = dewpoint
ff = Vitesse du vent
fx = gusts
dd = Direction du vent
ppp = reduced air pressure
vv = visibility

stations d'obs. à proximité